Miscellaneous Local Product
Issued by NWS Hastings, NE

Home | Current Version | Previous Version | Text Only | Print | Product List | Glossary Off
Versions: 1 2 3 4 5 6 7 8 9 10 11 12 13 14 15 16 17 18 19 20 21 22 23 24 25 26 27 28 29 30 31 32 33 34 35 36 37 38 39 40 41 42 43 44 45 46 47 48 49 50

088
AXUS43 KGID 231902
MISGRI

GID CWA HOURLY WEATHER ROUNDUP
NATIONAL WEATHER SERVICE HASTINGS NE
200 PM CDT SAT JUL 23 2016

NOTE: "FAIR" INDICATES FEW OR NO CLOUDS BELOW 12,000 FEET WITH NO
SIGNIFICANT WEATHER AND/OR OBSTRUCTIONS TO VISIBILITY.

...SOUTH CENTRAL NEBRASKA...

CITY           SKY/WX    TMP DP  RH WIND       PRES   REMARKS
GRAND ISLAND   SUNNY     92  68  45 SW17G23   29.84F HX  96
HASTINGS       SUNNY     92  70  48 SW10      29.85F HX  97
KEARNEY        SUNNY     90  72  55 SW9       29.86F HX  96
ORD            SUNNY     89  70  53 SW13      29.81F HX  94
YORK           CLOUDY    90  73  58 SW10      29.84S HX  98
AURORA         SUNNY     89  70  54 SW9       29.84F HX  94
LEXINGTON      SUNNY     89  69  52 SW7       29.87S HX  93
HOLDREGE       SUNNY     89  69  52 W7        29.87S HX  94
HEBRON         CLOUDY    90  70  52 S14G21    29.83F HX  95

...NEBRASKA PANHANDLE...

CITY           SKY/WX    TMP DP  RH WIND       PRES   REMARKS
CHADRON        SUNNY     92  50  23 NW7G20    29.94R
ALLIANCE       SUNNY     90  53  28 N15G24    29.98S
SCOTTSBLUFF    SUNNY     93  50  23 NW14      29.99F HX  90
SIDNEY         SUNNY     96  48  19 N15       30.02F HX  92

...WESTERN AND NORTH CENTRAL NEBRASKA...

CITY           SKY/WX    TMP DP  RH WIND       PRES   REMARKS
VALENTINE      SUNNY     95  60  31 NW16G25   29.83R HX  95
AINSWORTH      SUNNY     92  68  45 W14       29.82S HX  96
ONEILL         SUNNY     93  67  43 SW15      29.80F HX  96
BROKEN BOW     SUNNY     88  72  58 W12       29.86F HX  94
IMPERIAL       SUNNY     89  66  46 VRB7      29.93F HX  91
NORTH PLATTE   CLOUDY    89  71  55 W8        29.89S HX  95
MCCOOK         CLOUDY    88  67  49 W5        29.88F HX  91

...EASTERN NEBRASKA...

CITY           SKY/WX    TMP DP  RH WIND       PRES   REMARKS
NORFOLK        SUNNY     90  72  55 SW13G21   29.80F HX  97
SO SIOUX CITY  MOSUNNY   92  77  61 S12       29.78F HX 105
TEKAMAH        CLOUDY    85  76  74 SE12      29.81F HX  94
COLUMBUS       SUNNY     90  70  51 SW9       29.82F HX  95
ALBION         SUNNY     88  72  59 SW9       29.82S HX  95
OMAHA EPPLEY   CLOUDY    89  73  59 S13       29.83S HX  97
OFFUTT AFB     CLOUDY    89  75  63 SE9       29.83S HX  98
MILLARD        CLOUDY    89  74  61 S6        29.83R HX  99
LINCOLN        MOSUNNY   92  71  50 SW15      29.83R HX  98
NEBRASKA CITY  CLOUDY    84  76  76 S9        29.85S HX  92
BEATRICE       CLOUDY    88  70  55 S14       29.84S HX  93
FALLS CITY     MOSUNNY   91  77  63 S10       29.85S HX 104

...NORTHERN KANSAS...

CITY           SKY/WX    TMP DP  RH WIND       PRES   REMARKS
GOODLAND       SUNNY     97  55  24 N12       29.95S HX  95
HILL CITY      SUNNY     97  64  33 SW9       29.85F HX  99
NORTON         CLEAR     97  55  24 S8        29.86  HX  95
SMITH CENTER   SUNNY    100  63  28 S12G21    29.83F HX 102
BELOIT         SUNNY     97  70  41 S15       29.82S HX 103
HAYS           SUNNY    102  63  27 S20G30    29.83F HX 104
RUSSELL        PTSUNNY  100  62  28 S26G32    29.83F HX 101
CONCORDIA      PTSUNNY   93  70  46 S15       29.85F HX  99
SALINA         CLOUDY   100  65  31 S16G25    29.84F HX 103
TOPEKA         MOSUNNY   93  71  48 S13       29.88S HX 100



USA.gov is the U.S. government's official web portal to all federal, state and local government web resources and services.